Weather History for La Grange, TX

Change the Weather History Date:

Wednesday, July 17, 2013

  Actual Average (KAUS) Record (KAUS)
Temperature  
Mean Temperature 84 °F 84 °F  
Max Temperature 92 °F 95 °F 105 °F (1984)
Min Temperature 76 °F 72 °F 66 °F (2000)
Degree Days  
Heating Degree Days 0 0  
Month to date heating degree days 0  
Since 1 June heating degree days 0  
Since 1 July heating degree days 0  
Cooling Degree Days 19 19  
Month to date cooling degree days 307  
Year to date cooling degree days 1295  
Since 1 June cooling degree days 788  
Growing Degree Days 34 (Base 50)    
Moisture  
Dew Point 74 °F    
Average Humidity 83    
Maximum Humidity 92    
Minimum Humidity 48    
Precipitation  
Precipitation 0.76 in 0.08 in 0.88 in (2014)
Month to date precipitation 1.63  
Year to date precipitation 20.31  
Snow  
Snow 0.00 in - - ()
Month to date snowfall  
Since 1 June snowfall  
Since 1 July snowfall  
Snow Depth -    
Sea Level Pressure  
Sea Level Pressure 30.12 in    
Wind  
Wind Speed 3 mph (East)    
Max Wind Speed 15 mph    
Max Gust Speed 20 mph    
Visibility 10 miles    
Events Rain , Thunderstorm    
T = Trace of Precipitation, MM = Missing Value Source: NWS Daily Summary

Daily Weather History Graph

Daily Weather History Graph

Search for Another Location

Airport:

Trip Planner

Search our weather history database for the weather conditions in past years. The results will help you decide how hot, cold, wet, or windy it might be!

Date:

Astronomy

Jul. 17, 2013 Rise Set
Actual Time 6:38 AM CDT 8:29 PM CDT
Civil Twilight 6:11 AM CDT 8:56 PM CDT
Nautical Twilight 5:39 AM CDT 9:28 PM CDT
Astronomical Twilight 5:05 AM CDT 10:02 PM CDT
Moon 3:25 PM CDT (7/17) 1:38 AM CDT (7/17)
Length of Visible Light 14h 44m
Length of Day
13h 50m
Waxing Gibbous, 67% of the Moon is Illuminated
Jul 17
Waxing Gibbous
Jul 22
Full
Jul 29
Last Quarter
Aug 6
New
Aug 14
First Quarter

Hourly Weather History & Observations

Time (CDT) Temp. Heat Index Dew Point Humidity Pressure Visibility Wind Dir Wind Speed Gust Speed Precip Events Conditions
12:15 AM 77.5 °F - 74.3 °F 90% 30.10 in 10.0 mi Calm Calm - N/A   Scattered Clouds
12:35 AM 77.5 °F - 74.3 °F 90% 30.10 in 10.0 mi Calm Calm - N/A   Scattered Clouds
12:55 AM 77.2 °F - 74.3 °F 91% 30.09 in 10.0 mi ENE 3.5 mph - N/A   Clear
1:15 AM 77.0 °F - 74.3 °F 91% 30.09 in 10.0 mi Calm Calm - N/A   Clear
1:35 AM 77.0 °F - 73.9 °F 90% 30.09 in 10.0 mi Calm Calm - N/A   Clear
1:55 AM 77.0 °F - 73.9 °F 90% 30.10 in 10.0 mi Calm Calm - N/A   Scattered Clouds
2:15 AM 76.5 °F - 73.8 °F 91% 30.09 in 10.0 mi Calm Calm - N/A   Scattered Clouds
2:35 AM 77.0 °F - 74.3 °F 91% 30.09 in 10.0 mi Calm Calm - N/A   Mostly Cloudy
2:55 AM 77.0 °F - 74.3 °F 91% 30.09 in 10.0 mi Calm Calm - N/A   Overcast
3:15 AM 77.4 °F - 74.5 °F 91% 30.09 in 10.0 mi Calm Calm - N/A   Overcast
3:35 AM 77.5 °F - 74.7 °F 91% 30.10 in 10.0 mi ESE 5.8 mph - N/A   Overcast
3:55 AM 77.5 °F - 74.5 °F 90% 30.10 in 10.0 mi East 4.6 mph - N/A   Overcast
4:15 AM 77.5 °F - 74.5 °F 90% 30.10 in 10.0 mi East 3.5 mph - N/A   Overcast
4:35 AM 77.5 °F - 74.5 °F 90% 30.09 in 10.0 mi East 4.6 mph - N/A   Overcast
4:55 AM 77.5 °F - 74.3 °F 90% 30.10 in 10.0 mi East 3.5 mph - N/A   Overcast
5:15 AM 77.5 °F - 74.3 °F 90% 30.10 in 10.0 mi Calm Calm - N/A   Overcast
5:35 AM 77.5 °F - 74.3 °F 90% 30.11 in 10.0 mi East 4.6 mph - N/A   Overcast
5:55 AM 77.9 °F - 74.3 °F 89% 30.11 in 10.0 mi East 6.9 mph - N/A   Overcast
6:15 AM 77.5 °F - 74.3 °F 90% 30.11 in 7.0 mi East 6.9 mph - N/A   Overcast
6:35 AM 77.9 °F - 74.5 °F 89% 30.12 in 7.0 mi ENE 3.5 mph - N/A   Overcast
6:55 AM 77.9 °F - 74.5 °F 89% 30.12 in 7.0 mi East 4.6 mph - N/A   Overcast
7:15 AM 78.8 °F - 75.2 °F 89% 30.12 in 10.0 mi East 4.6 mph - N/A   Overcast
7:35 AM 78.8 °F - 74.7 °F 87% 30.13 in 10.0 mi Calm Calm - N/A   Overcast
7:55 AM 78.8 °F - 74.8 °F 88% 30.12 in 10.0 mi Calm Calm - N/A   Overcast
8:15 AM 79.3 °F - 74.8 °F 86% 30.13 in 10.0 mi Calm Calm - N/A   Overcast
8:35 AM 81.3 °F 87.6 °F 75.2 °F 82% 30.13 in 10.0 mi ENE 5.8 mph - N/A   Mostly Cloudy
8:55 AM 81.5 °F 87.8 °F 75.0 °F 81% 30.14 in 10.0 mi ENE 3.5 mph - N/A   Scattered Clouds
9:15 AM 82.9 °F 89.9 °F 74.8 °F 76% 30.15 in 10.0 mi ENE 5.8 mph - N/A   Mostly Cloudy
9:35 AM 83.8 °F 91.4 °F 74.7 °F 74% 30.15 in 10.0 mi ENE 6.9 mph - N/A   Mostly Cloudy
9:55 AM 83.7 °F 91.0 °F 74.5 °F 74% 30.16 in 10.0 mi East 6.9 mph - N/A   Mostly Cloudy
10:15 AM 84.2 °F 91.6 °F 74.3 °F 72% 30.16 in 10.0 mi East 8.1 mph - N/A   Mostly Cloudy
10:35 AM 85.3 °F 92.6 °F 73.8 °F 68% 30.17 in 10.0 mi East 10.4 mph - N/A   Mostly Cloudy
10:55 AM 86.0 °F 93.4 °F 73.4 °F 66% 30.16 in 10.0 mi East 6.9 mph - N/A   Scattered Clouds
11:15 AM 86.7 °F 94.1 °F 73.0 °F 64% 30.15 in 10.0 mi East 9.2 mph - N/A   Mostly Cloudy
11:35 AM 87.3 °F 94.5 °F 72.9 °F 62% 30.15 in 10.0 mi ENE 5.8 mph - N/A   Scattered Clouds
11:55 AM 88.2 °F 95.0 °F 72.1 °F 59% 30.14 in 10.0 mi East 6.9 mph - N/A   Scattered Clouds
12:15 PM 89.4 °F 96.3 °F 71.6 °F 56% 30.14 in 10.0 mi ESE 10.4 mph - N/A   Scattered Clouds
12:35 PM 90.7 °F 96.9 °F 70.7 °F 52% 30.13 in 10.0 mi East 5.8 mph - N/A   Scattered Clouds
12:55 PM 91.4 °F 96.8 °F 69.8 °F 49% 30.13 in 10.0 mi ESE 6.9 mph - N/A   Scattered Clouds
1:15 PM 91.6 °F 96.7 °F 69.4 °F 48% 30.11 in 10.0 mi ENE 6.9 mph - N/A   Clear
1:35 PM 92.1 °F 98.3 °F 70.5 °F 49% 30.12 in 10.0 mi East 4.6 mph 16.1 mph N/A   Scattered Clouds
1:55 PM 91.6 °F 97.7 °F 70.3 °F 50% 30.11 in 10.0 mi ESE 5.8 mph - N/A   Scattered Clouds
2:35 PM 78.8 °F - 75.2 °F 89% 30.14 in 2.5 mi East 6.9 mph 17.3 mph 0.16 in Rain , Thunderstorm Heavy Thunderstorms and Rain
2:55 PM 78.1 °F - 74.5 °F 89% 30.12 in 0.5 mi ENE 4.6 mph - 0.31 in Rain , Thunderstorm Heavy Thunderstorms and Rain
3:15 PM 79.9 °F - 75.9 °F 88% 30.13 in 10.0 mi SSW 15.0 mph 19.6 mph 0.11 in Rain , Thunderstorm Light Thunderstorms and Rain
3:35 PM 78.3 °F - 75.7 °F 92% 30.12 in 10.0 mi SW 5.8 mph - 0.17 in Thunderstorm Unknown
3:55 PM 78.1 °F - 75.4 °F 91% 30.13 in 10.0 mi SW 5.8 mph - 0.22 in Thunderstorm Clear
4:15 PM 78.1 °F - 75.2 °F 91% 30.12 in 10.0 mi SSW 5.8 mph - 0.03 in Thunderstorm Unknown
4:35 PM 78.1 °F - 75.2 °F 91% 30.11 in 10.0 mi SSW 5.8 mph - 0.06 in   Clear
4:55 PM 78.1 °F - 74.5 °F 89% 30.11 in 10.0 mi South 4.6 mph - 0.09 in   Clear
5:15 PM 78.6 °F - 75.2 °F 89% 30.12 in 10.0 mi South 3.5 mph - 0.01 in   Clear
5:35 PM 78.8 °F - 75.2 °F 89% 30.11 in 10.0 mi Calm Calm - 0.03 in   Clear
5:55 PM 78.8 °F - 75.0 °F 88% 30.10 in 10.0 mi Calm Calm - 0.04 in   Clear
6:15 PM 79.0 °F - 74.8 °F 87% 30.11 in 10.0 mi Calm Calm - 0.01 in   Clear
6:35 PM 79.3 °F - 75.0 °F 87% 30.11 in 10.0 mi South 3.5 mph - 0.02 in   Clear
6:55 PM 79.2 °F - 74.8 °F 87% 30.12 in 10.0 mi Calm Calm - 0.03 in   Scattered Clouds
7:15 PM 79.7 °F - 74.8 °F 85% 30.12 in 10.0 mi Calm Calm - N/A   Mostly Cloudy
7:35 PM 79.7 °F - 74.7 °F 84% 30.13 in 10.0 mi Calm Calm - 0.01 in   Scattered Clouds
7:55 PM 79.5 °F - 75.2 °F 87% 30.13 in 10.0 mi Calm Calm - 0.02 in   Clear
8:15 PM 79.0 °F - 75.2 °F 88% 30.12 in 10.0 mi Calm Calm - N/A   Clear
8:35 PM 79.0 °F - 75.2 °F 88% 30.13 in 10.0 mi NNW 3.5 mph - 0.01 in   Clear
8:55 PM 78.8 °F - 75.2 °F 89% 30.12 in 10.0 mi Calm Calm - 0.01 in   Clear
9:15 PM 78.8 °F - 75.4 °F 89% 30.12 in 10.0 mi Calm Calm - 0.01 in   Clear
9:35 PM 78.6 °F - 75.4 °F 90% 30.12 in 10.0 mi Calm Calm - 0.01 in   Clear
9:55 PM 77.9 °F - 74.7 °F 90% 30.12 in 10.0 mi Calm Calm - 0.01 in   Clear
10:15 PM 77.9 °F - 74.7 °F 90% 30.13 in 10.0 mi Calm Calm - 0.01 in   Clear
10:35 PM 77.7 °F - 74.3 °F 89% 30.13 in 10.0 mi Calm Calm - 0.01 in   Clear
10:55 PM 77.5 °F - 74.3 °F 90% 30.13 in 10.0 mi Calm Calm - 0.02 in   Clear
11:15 PM 77.5 °F - 74.5 °F 90% 30.14 in 10.0 mi Calm Calm - N/A   Clear
11:35 PM 77.5 °F - 74.3 °F 90% 30.14 in 10.0 mi Calm Calm - N/A   Clear
11:55 PM 77.4 °F - 74.3 °F 90% 30.14 in 10.0 mi Calm Calm - 0.01 in   Scattered Clouds